Weather History for Middlesboro, KY

Change the Weather History Date:

Saturday, August 30, 2014

  Actual Average (KLOZ) Record (KLOZ)
Temperature  
Mean Temperature 76 °F 74 °F  
Max Temperature 88 °F 84 °F 94 °F (1957)
Min Temperature 64 °F 63 °F 46 °F (1965)
Degree Days  
Heating Degree Days 0 0  
Month to date heating degree days 0  
Since 1 July heating degree days 0  
Cooling Degree Days 11 9  
Month to date cooling degree days 310  
Growing Degree Days 26 (Base 50)    
Moisture  
Dew Point 67 °F    
Average Humidity 80    
Maximum Humidity 99    
Minimum Humidity 49    
Precipitation  
Precipitation 0.46 in 0.11 in 2.03 in (2014)
Month to date precipitation 3.60  
Sea Level Pressure  
Sea Level Pressure 30.14 in    
Wind  
Wind Speed 1 mph (SSW)    
Max Wind Speed 9 mph    
Max Gust Speed 18 mph    
Visibility 9 miles    
Events Rain , Thunderstorm    
T = Trace of Precipitation, MM = Missing Value Source: NWS Daily Summary

Daily Weather History Graph

Daily Weather History Graph

Search for Another Location

Airport:

Trip Planner

Search our weather history database for the weather conditions in past years. The results will help you decide how hot, cold, wet, or windy it might be!

Date:

Astronomy

Aug. 30, 2014 Rise Set
Actual Time 6:04 AM CDT 7:05 PM CDT
Civil Twilight 5:38 AM CDT 7:32 PM CDT
Nautical Twilight 5:06 AM CDT 8:03 PM CDT
Astronomical Twilight 4:33 AM CDT 8:36 PM CDT
Moon 10:42 AM CDT (8/30) 9:48 PM CDT (8/30)
Length of Visible Light 13h 54m
Length of Day
13h 01m
Waxing Crescent, 23% of the Moon is Illuminated
Aug 30
Waxing Crescent
Sep 2
First Quarter
Sep 8
Full
Sep 15
Last Quarter
Sep 24
New

Hourly Weather History & Observations

Time (CDT) Temp. Heat Index Dew Point Humidity Pressure Visibility Wind Dir Wind Speed Gust Speed Precip Events Conditions
12:15 AM 69.1 °F - 65.8 °F 89% 30.14 in 10.0 mi Calm Calm - N/A   Clear
12:35 AM 68.2 °F - 65.3 °F 90% 30.14 in 10.0 mi Calm Calm - N/A   Clear
12:55 AM 68.2 °F - 65.5 °F 91% 30.15 in 10.0 mi Calm Calm - N/A   Clear
1:15 AM 67.6 °F - 65.1 °F 92% 30.15 in 10.0 mi Calm Calm - N/A   Clear
1:35 AM 67.5 °F - 65.3 °F 93% 30.15 in 10.0 mi Calm Calm - N/A   Clear
1:55 AM 67.1 °F - 65.1 °F 93% 30.15 in 10.0 mi Calm Calm - N/A   Clear
2:15 AM 66.7 °F - 64.8 °F 93% 30.16 in 10.0 mi Calm Calm - N/A   Clear
2:35 AM 66.9 °F - 65.1 °F 94% 30.15 in 10.0 mi Calm Calm - N/A   Clear
2:55 AM 66.2 °F - 64.9 °F 96% 30.15 in 10.0 mi Calm Calm - N/A   Clear
3:15 AM 66.2 °F - 64.9 °F 96% 30.14 in 10.0 mi Calm Calm - N/A   Scattered Clouds
3:35 AM 65.7 °F - 64.8 °F 97% 30.15 in 10.0 mi Calm Calm - N/A   Clear
3:55 AM 65.5 °F - 64.6 °F 97% 30.15 in 10.0 mi Calm Calm - N/A   Clear
4:15 AM 65.3 °F - 64.4 °F 97% 30.15 in 10.0 mi Calm Calm - N/A   Clear
4:35 AM 65.3 °F - 64.4 °F 97% 30.16 in 10.0 mi Calm Calm - N/A   Clear
4:55 AM 64.9 °F - 64.0 °F 97% 30.16 in 10.0 mi Calm Calm - N/A   Clear
5:15 AM 64.8 °F - 64.0 °F 98% 30.17 in 10.0 mi Calm Calm - N/A   Clear
5:35 AM 64.6 °F - 63.9 °F 98% 30.17 in 10.0 mi Calm Calm - N/A   Clear
5:55 AM 64.4 °F - 63.7 °F 98% 30.17 in 10.0 mi Calm Calm - N/A   Clear
6:15 AM 64.6 °F - 63.7 °F 97% 30.17 in 7.0 mi Calm Calm - N/A   Clear
6:35 AM 64.8 °F - 63.7 °F 96% 30.17 in 10.0 mi Calm Calm - N/A   Clear
6:55 AM 65.8 °F - 64.4 °F 95% 30.17 in 10.0 mi Calm Calm - N/A   Clear
7:15 AM 67.3 °F - 65.3 °F 93% 30.17 in 10.0 mi Calm Calm - N/A   Scattered Clouds
7:35 AM 70.0 °F - 66.7 °F 89% 30.18 in 10.0 mi Calm Calm - N/A   Mostly Cloudy
7:55 AM 73.4 °F - 67.8 °F 83% 30.17 in 10.0 mi Calm Calm - N/A   Mostly Cloudy
8:15 AM 75.4 °F - 68.0 °F 78% 30.17 in 10.0 mi Calm Calm - N/A   Mostly Cloudy
8:35 AM 77.4 °F - 68.7 °F 75% 30.17 in 10.0 mi Calm Calm - N/A   Scattered Clouds
8:55 AM 78.6 °F - 68.0 °F 70% 30.17 in 10.0 mi SSE 4.6 mph - N/A   Overcast
9:15 AM 79.9 °F - 67.8 °F 66% 30.17 in 10.0 mi SE 3.5 mph - N/A   Overcast
9:35 AM 80.1 °F 82.7 °F 68.2 °F 67% 30.17 in 10.0 mi Calm Calm - N/A   Mostly Cloudy
9:55 AM 82.0 °F 85.1 °F 68.2 °F 63% 30.17 in 10.0 mi Calm Calm - N/A   Scattered Clouds
10:15 AM 82.6 °F 85.3 °F 67.6 °F 60% 30.17 in 10.0 mi SSE 3.5 mph - N/A   Scattered Clouds
10:35 AM 83.3 °F 85.9 °F 67.3 °F 58% 30.17 in 10.0 mi South 3.5 mph - N/A   Clear
10:55 AM 84.6 °F 87.6 °F 67.6 °F 57% 30.17 in 10.0 mi SSE 3.5 mph - N/A   Scattered Clouds
11:15 AM 84.9 °F 87.6 °F 67.3 °F 55% 30.16 in 10.0 mi SSE 4.6 mph - N/A   Overcast
11:35 AM 85.6 °F 88.2 °F 66.9 °F 53% 30.16 in 10.0 mi Calm Calm - N/A   Mostly Cloudy
11:55 AM 86.9 °F 89.6 °F 66.7 °F 51% 30.16 in 10.0 mi South 6.9 mph - N/A   Scattered Clouds
12:15 PM 87.6 °F 90.1 °F 66.4 °F 49% 30.16 in 10.0 mi South 8.1 mph - N/A   Overcast
12:35 PM 88.0 °F 90.7 °F 66.6 °F 49% 30.15 in 10.0 mi South 6.9 mph - N/A   Mostly Cloudy
12:55 PM 86.5 °F 89.3 °F 66.7 °F 52% 30.15 in 10.0 mi South 4.6 mph - N/A   Mostly Cloudy
1:15 PM 86.7 °F 89.9 °F 67.5 °F 53% 30.14 in 10.0 mi SSW 5.8 mph - N/A   Overcast
1:35 PM 86.5 °F 90.0 °F 68.2 °F 54% 30.14 in 10.0 mi West 3.5 mph - N/A   Mostly Cloudy
1:55 PM 87.3 °F 90.2 °F 67.3 °F 51% 30.13 in 10.0 mi WSW 4.6 mph - N/A   Clear
2:15 PM 87.1 °F 89.5 °F 66.4 °F 50% 30.12 in 10.0 mi South 6.9 mph - N/A   Scattered Clouds
3:15 PM 86.0 °F 89.4 °F 68.2 °F 55% 30.10 in 10.0 mi West 3.5 mph - N/A   Overcast
3:35 PM 86.4 °F 89.4 °F 67.6 °F 53% 30.09 in 10.0 mi Calm Calm - N/A   Mostly Cloudy
3:55 PM 88.2 °F 92.1 °F 68.4 °F 52% 30.09 in 10.0 mi SSE 3.5 mph - N/A   Scattered Clouds
4:15 PM 87.3 °F 90.9 °F 68.0 °F 53% 30.08 in 10.0 mi Calm Calm - N/A   Clear
4:35 PM 87.8 °F 91.1 °F 67.8 °F 51% 30.08 in 10.0 mi Calm Calm - N/A   Clear
4:55 PM 86.5 °F 90.0 °F 68.0 °F 54% 30.08 in 10.0 mi SSW 3.5 mph - N/A   Scattered Clouds
5:15 PM 84.9 °F 88.8 °F 69.3 °F 59% 30.09 in 10.0 mi South 8.1 mph - N/A Rain Light Rain
5:35 PM 75.0 °F - 70.9 °F 87% 30.11 in 4.0 mi WNW 4.6 mph 18.4 mph 0.03 in Rain Rain
5:55 PM 74.3 °F - 71.1 °F 90% 30.10 in 10.0 mi Calm Calm - 0.03 in   Light Drizzle
6:15 PM 74.5 °F - 72.3 °F 93% 30.10 in 10.0 mi Calm Calm - N/A   Overcast
6:35 PM 73.9 °F - 70.9 °F 90% 30.10 in 10.0 mi Calm Calm - N/A   Scattered Clouds
6:55 PM 73.8 °F - 72.0 °F 94% 30.10 in 10.0 mi Calm Calm - N/A   Scattered Clouds
7:15 PM 73.4 °F - 71.2 °F 93% 30.11 in 10.0 mi Calm Calm - N/A   Mostly Cloudy
7:35 PM 73.2 °F - 70.9 °F 92% 30.11 in 10.0 mi Calm Calm - N/A   Overcast
7:55 PM 72.9 °F - 71.1 °F 94% 30.12 in 10.0 mi Calm Calm - N/A   Overcast
8:15 PM 72.9 °F - 71.8 °F 96% 30.12 in 10.0 mi Calm Calm - 0.01 in Rain Light Rain
8:35 PM 72.5 °F - 71.4 °F 96% 30.13 in 10.0 mi Calm Calm - 0.01 in   Overcast
8:55 PM 72.5 °F - 71.6 °F 97% 30.14 in 10.0 mi West 3.5 mph - 0.01 in Rain Light Rain
9:15 PM 73.2 °F - 68.9 °F 86% 30.17 in 4.0 mi WSW 9.2 mph 18.4 mph 0.08 in Rain , Thunderstorm Heavy Thunderstorms and Rain
9:35 PM 71.1 °F - 68.2 °F 91% 30.16 in 5.0 mi Calm Calm - 0.22 in Rain , Thunderstorm Thunderstorms and Rain
9:55 PM 70.3 °F - 69.1 °F 96% 30.16 in 5.0 mi ESE 4.6 mph - 0.27 in Rain , Thunderstorm Light Thunderstorms and Rain
10:15 PM 70.3 °F - 69.3 °F 96% 30.16 in 7.0 mi Calm Calm - 0.02 in Rain Rain
10:35 PM 70.0 °F - 69.3 °F 98% 30.14 in 10.0 mi Calm Calm - 0.03 in Rain Light Rain
10:55 PM 70.0 °F - 69.8 °F 99% 30.15 in 10.0 mi Calm Calm - 0.05 in Rain Light Rain
11:15 PM 70.0 °F - 69.8 °F 99% 30.16 in 4.0 mi Calm Calm - 0.03 in Rain Rain
11:35 PM 70.2 °F - 69.6 °F 98% 30.17 in 7.0 mi WSW 3.5 mph - 0.08 in Rain Rain
11:55 PM 70.9 °F - 69.6 °F 96% 30.16 in 7.0 mi Calm Calm - 0.10 in Rain Light Rain